sat.trackr.live / text

‹ back to catalog

STARLINK-30369

NORAD 57781 · 2023-134L

PAYLOAD ACTIVE UNKNOWN

§ Identity

Operator
Country
US
Launch date
2023-09-04
Launch site
AFETR
Launch vehicle
Mass (kg)
RCS (m²)

Purposes: comms

External: N2YO · Heavens-Above · Gunter

§ Orbital elements

Epoch: 2026-05-25T05:27:14.107104Z

Period
94.27 min
Inclination
43.0012°
Eccentricity
0.0001445
Mean motion
15.27556100 rev/d
Perigee alt
482.1 km
Apogee alt
484.1 km
Semi-major
6,861.3 km
B*
1.5614e-4
RAAN
122.1112°
Arg perigee
240.0302°
Mean anomaly
120.0406°
Rev number
15,121

§ Raw data

STARLINK-303691 57781U 23134L   26145.22724661  .00004034  00000+0  15614-3 0  99992 57781  43.0012 122.1112 0001445 240.0302 120.0406 15.27556100151210

JSON: /api/v1/satellites/57781 · /tle

For live sub-satellite position, see the globe view (requires WebGL).

§ Visibility from observer

Set your observer location to see the next 7 days of passes ≥ 10°. The values pass through the URL so the page stays shareable.

No JS? Fill the form by hand. The geolocation button needs JavaScript.